Home   Weather   Suzhou   Past weeks
Flag for China

Past Weather in Suzhou, Jiangsu, China — Yesterday and Last 2 Weeks

Now
73 °F

Light rain. Passing clouds.


Feels Like: 70 °F
Forecast: 74 / 71 °F
Wind: 8 mph from Southeast

Location: Shanghai Hongqiao Airport

Current Time: Jun 20, 2019 at 11:47:27 pm

Latest Report: Jun 20, 2019 at 11:00 pm


Visibility: 4 mi

Pressure: 29.65 "Hg

Humidity: 94%

Dew Point: 72 °F

Location of SuzhouLocation

Past Weather in Suzhou — Graph

°F

Suzhou Temperature Yesterday

Maximum temperature yesterday: 79 °F (at 12:00 pm)
Minimum temperature yesterday: 73 °F (at 12:00 am)
Average temperature yesterday: 76 °F

High & Low Weather Summary for the Past Weeks

 TemperatureHumidityPressure
High93 °F (Jun 6, 2:00 pm)100% (Jun 18, 4:00 am)29.86 "Hg (Jun 18, 4:00 am)
Low63 °F (Jun 14, 1:00 am)26% (Jun 17, 12:00 pm)29.53 "Hg (Jun 6, 1:30 pm)
Average76 °F71%29.72 "Hg
* Reported Jun 5 10:00 pm — Jun 20 10:30 pm, Suzhou. Weather by CustomWeather, © 2019

Note: Actual official high and low records may vary slightly from our data, if they occured in-between our weather recording intervals... More about our weather records

Advertising

Suzhou Weather History for the Previous 24 Hours

Scroll right to see more
 ConditionsComfort  
Time TempWeatherWind HumidityBarometerVisibility
10:30 pm
Thu, Jun 20
73 °FLight rain. Passing clouds.6 mph94%29.68 "Hg4 mi
10:00 pm73 °FPassing clouds.6 mph94%29.68 "Hg4 mi
9:30 pm73 °FPassing clouds.8 mph94%29.68 "Hg4 mi
9:00 pm73 °FPassing clouds.8 mph94%29.68 "Hg4 mi
8:30 pm73 °FPassing clouds.8 mph94%29.68 "Hg4 mi
8:00 pm73 °FPassing clouds.6 mph94%29.68 "Hg5 mi
7:30 pm73 °FPassing clouds.8 mph94%29.68 "Hg5 mi
7:00 pm73 °FMostly cloudy.6 mph94%29.68 "Hg4 mi
6:30 pm73 °FSprinkles. Mostly cloudy.10 mph94%29.68 "Hg4 mi
6:00 pm73 °FSprinkles. Mostly cloudy.8 mph94%29.68 "Hg4 mi
5:30 pm73 °FRain showers. Mostly cloudy.6 mph94%29.68 "Hg4 mi
5:00 pm73 °FSprinkles. Mostly cloudy.6 mph94%29.68 "Hg4 mi
4:30 pm73 °FSprinkles. Mostly cloudy.6 mph94%29.71 "Hg4 mi
4:00 pm73 °FLight rain. Mostly cloudy.8 mph94%29.68 "Hg4 mi
3:30 pm73 °FLight rain. Mostly cloudy.6 mph94%29.68 "Hg5 mi
3:00 pm75 °FLight rain. Mostly cloudy.6 mph89%29.71 "HgN/A
2:30 pm75 °FLight rain. Mostly cloudy.3 mph83%29.71 "HgN/A
2:00 pm75 °FMostly cloudy.6 mph83%29.71 "HgN/A
1:30 pm75 °FMostly cloudy.8 mph83%29.68 "HgN/A
1:00 pm75 °FLight rain. Mostly cloudy.8 mph89%29.68 "HgN/A
12:30 pm75 °FLight rain. Mostly cloudy.8 mph89%29.68 "HgN/A
12:00 pm75 °FLight rain. Mostly cloudy.6 mph83%29.71 "HgN/A
11:30 am75 °FLight rain. More clouds than sun.13 mph89%29.68 "HgN/A
11:00 am75 °FLight rain. Mostly cloudy.8 mph83%29.74 "HgN/A
10:30 am77 °FMostly cloudy.8 mph74%29.74 "HgN/A
10:00 am77 °FMostly cloudy.8 mph74%29.74 "HgN/A
9:30 am77 °FMore clouds than sun.8 mph79%29.74 "HgN/A
9:00 am75 °FMore clouds than sun.8 mph78%29.74 "HgN/A
8:30 am75 °FMore clouds than sun.6 mph83%29.74 "HgN/A
8:00 am75 °FMore clouds than sun.8 mph83%29.74 "HgN/A
7:30 am75 °FMore clouds than sun.8 mph83%29.74 "HgN/A
7:00 am73 °FMore clouds than sun.10 mph83%29.71 "HgN/A
6:30 am73 °FMore clouds than sun.8 mph89%29.71 "HgN/A
6:00 am73 °FPartly sunny.8 mph89%29.71 "HgN/A
5:30 am72 °FScattered clouds.6 mph94%29.71 "Hg5 mi
5:00 am72 °FPassing clouds.3 mph88%29.71 "Hg4 mi
4:30 am72 °FPassing clouds.6 mph88%29.71 "HgN/A
4:00 am72 °FPassing clouds.6 mph88%29.71 "HgN/A
3:30 am72 °FPassing clouds.6 mph88%29.71 "HgN/A
3:00 am72 °FPassing clouds.6 mph88%29.71 "HgN/A
2:30 am72 °FPassing clouds.6 mph88%29.71 "HgN/A
2:00 am72 °FPassing clouds.8 mph88%29.71 "HgN/A
1:30 am72 °FPassing clouds.3 mph94%29.71 "HgN/A
1:00 am73 °FPassing clouds.3 mph89%29.71 "HgN/A
12:30 am73 °FClear.6 mph89%29.71 "Hg10 mi
12:00 am73 °FPassing clouds.6 mph89%29.74 "HgN/A
11:30 pm
Wed, Jun 19
73 °FPassing clouds.8 mph89%29.74 "HgN/A
11:00 pm73 °FPassing clouds.8 mph89%29.74 "HgN/A
Weather by CustomWeather, © 2019

See weather overview